SCP
0 0 0 0 0 0 0 0 0 0 0 0 0 0 0 0 0 0 0 0 0 0 0 0 0 0 0 0 0 0 0 0 0 0 0 0 0 0 0 0 0 0 0
0 0 0 0 0 0 0 0 0 0 0 0 0 0 0 0 0 0 0 0 0 0 0 0 0 0 0 0 0 0 0 0 0 0 0 0 0 0 0 0 0 0 0
0 0 0 0 0 0 0 0 0 0 0 0 0 0 0 0 0 0 0 0 0 0 0 0 0 0 0 0 0 0 0 0 0 0 0 0 0 0 0 0 0 0 0
0 0 0 0 0 0 0 0 0 0 0 0 0 0 0 0 0 0 0 0 0 0 0 0 0 0 0 0 0 0 0 0 0 0 0 -0 0 0 0 0 0 0 0
0 0 0 0 0 0 0 0 0 0 0 0 0 0 0 0 0 0 0 0 0 0 0 0 0 0 0 0 0 0 0 0 0 0 0 -0 -0 0 0 0 0 0 0
0 0 0 0 0 0 0 0 0 0 0 0 0 0 0 0 0 0 0 0 0 0 0 0 0 0 0 0 0 0 -0 -0 0 0 0 -0 0 0 -0 -0 0 0 0
0 0 0 0 0 0 0 0 0 0 0 0 0 0 0 0 0 0 0 0 0 0 0 0 0 0 0 0 0 -0 -0 -0 -0 0 0 -0 -0 -0 -0 -0 -0 -0 0
0 0 0 0 0 0 0 0 0 0 0 0 0 0 0 0 0 0 0 0 0 0 0 0 0 0 0 0 0 0 -0 -0 0 -0 -0 -0 -0 -0 -0 -0 -0 -0 0
0 0 0 0 0 0 0 0 0 0 0 0 0 0 0 0 0 0 0 0 0 0 0 0 0 0 0 0 0 0 -0 0 0 0 0 -0 -0 -0 0 -0 -0 -0 0
0 0 0 0 0 0 0 0 0 0 0 0 0 0 0 0 0 0 0 0 0 0 0 0 0 0 0 0 0 0 -0 0 -0 0 0 0 0 0 0 0 0 0 -0
0 0 0 0 0 0 0 0 0 0 0 0 0 0 0 0 0 0 0 0 0 0 0 0 0 0 0 0 0 0 -0 -0 -0 -0 0 0 0 0 0 0 0 0 0
0 0 0 0 0 0 0 0 0 0 0 0 0 0 0 0 0 0 0 0 0 0 0 0 0 0 0 0 0 0 -0 0 0 0 0 0 0 0 0 0 0 0 0
0 0 0 0 0 0 0 0 0 0 0 0 0 0 0 0 0 0 0 0 0 0 0 0 0 0 0 0 0 0 0 0 0 0 0 0 0 0 0 0 0 0 0
0 0 0 0 0 0 0 0 0 0 0 0 0 0 0 0 0 0 0 0 0 0 0 0 0 0 0 0 0 0 0 0 0 0 0 0 0 0 0 0 0 0 0
0 0 0 0 0 0 0 0 0 0 0 0 0 0 0 0 0 0 0 0 0 0 0 0 0 0 0 0 0 0 0 0 0 0 0 0 0 0 0 0 0 0 0
0 0 0 0 0 0 0 0 0 0 0 0 0 0 0 0 0 0 0 0 0 0 0 0 0 0 0 0 0 0 0 0 0 0 0 0 0 0 0 0 0 0 0
0 0 0 0 0 0 0 0 0 0 0 0 0 0 0 0 0 0 0 0 0 0 0 0 0 0 0 0 0 0 0 0 0 0 0 0 0 0 0 0 0 0 0
0 0 0 0 0 0 0 0 0 0 0 0 0 0 0 0 0 0 0 0 0 0 0 0 0 0 0 0 0 0 0 0 0 0 0 0 0 0 0 0 0 0 0
0 0 0 0 0 0 0 0 0 0 0 0 0 0 0 0 0 0 0 0 0 0 0 0 0 0 0 0 0 0 0 0 0 0 0 0 0 0 0 0 0 0 0
0 0 0 0 0 0 0 0 0 0 0 0 0 0 0 0 0 0 0 0 0 0 0 0 0 0 0 0 0 0 0 0 0 0 0 0 0 0 0 0 0 0 0
0 0 0 0 0 0 0 0 0 0 0 0 0 0 0 0 0 0 0 0 0 0 0 0 0 0 0 0 0 0 0 0 0 0 0 0 0 0 0 0 0 0 0
0 0 0 0 0 0 0 0 0 0 0 0 0 0 0 0 0 0 0 0 0 0 0 0 0 0 0 0 0 0 0 0 0 0 0 0 0 0 0 0 0 0 0
0 0 0 0 0 0 0 0 0 0 0 0 0 0 0 0 0 0 0 0 0 0 0 0 0 0 0 0 0 0 0 0 0 0 0 0 0 0 0 0 0 0 0
0 0 0 0 0 0 0 0 0 0 0 0 0 0 0 0 0 0 0 0 0 0 0 0 0 0 0 0 0 0 0 0 0 0 0 0 0 0 0 0 0 0 0
0 0 0 0 0 0 0 0 0 0 0 0 0 0 0 0 0 0 0 0 0 0 0 0 0 0 0 0 0 0 0 0 0 0 0 0 0 0 0 0 0 0 0
0 0 0 0 0 0 0 0 0 0 0 0 0 0 0 0 0 0 0 0 0 0 0 0 0 0 0 0 0 0 0 0 0 0 0 0 0 0 0 0 0 0 0
Wind_Speed_500mb
37 55 33 34 48 56 55 52 48 43 39 32 26 20 15 10 8 5 4 3 5 8 13 19 25 24 18 20 17 14 18 18 11 18 33 47 34 38 33 35 35 33 39
51 57 53 44 51 58 57 55 50 43 37 30 24 20 15 11 9 7 5 1 1 4 10 17 22 21 18 19 15 12 16 21 26 16 13 16 40 46 43 43 36 36 49
49 54 56 55 58 60 58 56 49 43 37 32 26 21 16 12 11 9 7 3 3 2 7 13 17 18 17 15 17 18 16 19 23 24 10 16 19 47 56 56 58 42 52
39 44 54 62 61 59 56 54 49 44 38 32 27 21 16 12 13 12 9 6 5 4 5 10 12 12 12 13 15 18 16 17 17 28 21 34 38 33 41 61 62 49 39
33 42 53 58 59 59 57 55 50 45 39 33 29 23 17 14 14 13 10 8 7 6 2 7 11 10 9 11 12 14 12 16 22 28 26 27 34 48 55 60 74 75 73
38 43 51 56 59 60 59 56 53 46 40 35 30 23 18 15 16 15 12 10 9 8 2 4 9 12 10 11 11 14 11 11 19 26 24 21 32 50 81 89 89 89 80
43 50 57 61 63 63 62 59 55 48 42 36 30 24 19 17 18 16 14 12 11 11 5 2 6 7 9 11 10 10 9 8 15 23 23 24 42 55 74 90 80 81 77
42 51 56 59 62 62 61 58 54 48 43 38 31 24 20 18 19 18 15 13 13 13 9 2 3 5 9 12 6 6 7 9 17 20 22 25 35 34 56 80 84 78 73
48 53 56 58 60 60 58 56 51 47 43 38 31 25 21 19 20 19 17 15 14 15 13 6 2 6 8 10 6 4 7 14 23 24 19 24 40 60 60 61 62 75 54
48 51 55 57 58 55 54 53 49 47 43 38 33 28 24 21 21 20 18 16 15 16 17 11 5 2 6 11 11 10 18 22 20 21 28 28 35 36 43 51 65 69 87
54 56 57 57 56 56 57 55 53 51 47 40 36 31 26 22 21 21 20 17 16 17 16 15 9 5 6 14 18 20 21 18 19 25 26 30 34 35 43 49 54 60 73
51 54 56 57 61 61 60 58 56 53 47 41 37 34 30 26 22 22 22 20 19 18 17 16 14 10 8 14 24 21 21 20 23 26 24 35 38 33 30 22 46 60 71
50 52 55 60 62 63 62 60 57 53 48 45 41 38 34 28 24 23 24 23 22 20 18 17 17 13 10 17 27 25 24 21 20 26 33 28 31 31 24 24 37 62 75
52 54 57 60 60 62 63 60 58 54 52 49 45 41 34 29 26 25 25 26 24 23 20 18 20 17 14 19 28 29 27 23 24 24 26 28 29 33 30 31 40 61 77
56 60 61 61 61 62 62 60 58 55 53 51 48 41 37 35 33 29 26 28 28 26 24 22 23 22 18 19 24 28 27 26 25 29 29 27 28 31 30 25 28 52 65
59 58 58 58 60 59 60 59 57 55 53 49 46 45 44 41 37 34 30 29 29 30 27 24 24 25 25 21 24 26 24 25 27 28 30 34 32 35 34 29 22 30 49
60 61 61 57 55 55 54 54 54 54 53 50 49 48 46 43 40 38 35 32 30 30 28 26 25 27 29 28 26 24 27 25 26 28 30 39 40 42 45 35 34 34 42
62 60 60 55 52 51 51 51 51 51 50 50 50 49 46 44 43 40 37 33 30 30 31 30 28 28 34 34 30 27 25 29 28 29 26 33 43 49 51 43 44 43 47
67 61 56 54 52 49 47 46 45 44 45 46 47 46 45 43 42 39 36 32 31 31 31 31 28 28 33 36 35 33 31 30 30 30 31 34 40 51 56 54 49 39 41
65 63 58 52 47 45 42 41 40 42 43 42 41 42 41 40 37 35 35 34 32 31 32 31 29 27 31 37 36 38 36 32 35 34 32 37 42 48 54 55 55 48 44
69 62 55 51 48 44 40 39 39 38 37 37 37 37 37 35 34 34 33 32 29 27 27 25 26 26 30 38 38 36 39 37 36 38 37 34 42 48 49 54 53 46 41
76 66 63 57 50 46 43 41 39 37 36 36 35 34 33 32 31 31 30 29 28 27 26 21 19 20 30 39 42 35 33 35 39 42 33 28 40 52 50 50 52 48 45
78 67 64 57 53 47 40 43 42 40 37 34 31 30 29 28 28 28 29 29 26 25 23 18 15 16 23 27 33 28 35 32 36 40 36 33 42 51 50 51 53 52 44
83 76 70 68 64 56 54 53 53 49 44 39 34 29 25 24 24 25 26 26 24 25 23 23 21 21 20 23 31 29 30 23 31 33 35 34 31 45 50 50 51 52 51
88 80 80 69 66 67 63 59 54 48 43 38 33 28 24 20 17 18 21 23 24 24 27 25 26 23 23 22 25 25 18 17 37 36 36 36 36 36 40 49 51 51 56
98 88 78 82 78 70 64 58 51 42 34 29 25 20 16 14 13 12 12 15 18 21 25 29 29 29 26 28 28 24 22 23 18 11 23 37 36 37 41 42 44 46 54
Wind_Direction_500mb
208 207 223 218 209 205 206 206 206 206 207 208 210 214 226 242 265 272 288 336 354 28 31 23 14 25 57 52 64 35 45 50 48 52 66 69 73 77 78 94 108 120 132
226 224 228 221 206 203 202 203 203 205 203 203 210 214 225 237 245 238 243 283 336 47 33 25 23 34 49 48 59 52 48 47 60 55 51 60 77 87 84 94 102 125 148
229 225 218 208 199 198 200 200 200 199 200 203 207 213 222 231 224 221 221 201 216 124 36 29 20 31 41 60 56 55 56 62 53 59 73 71 86 82 90 90 90 114 132
218 214 203 196 193 193 196 197 197 196 199 202 205 210 222 226 210 210 208 185 192 161 41 31 8 15 36 73 67 57 54 75 71 82 88 110 107 106 84 99 101 92 113
203 194 190 189 188 190 191 192 194 197 199 202 204 207 217 220 205 205 199 183 181 166 60 25 6 39 49 84 78 62 62 83 93 104 115 109 120 114 109 98 103 116 106
188 185 185 184 184 185 188 190 192 197 199 200 203 207 210 211 202 200 194 187 186 180 197 24 14 35 74 96 93 73 79 96 119 128 115 131 124 132 123 115 110 109 108
183 183 183 182 183 184 187 190 193 196 198 198 202 205 207 202 198 196 197 189 190 191 198 25 19 46 95 104 97 70 81 135 134 141 141 132 128 137 136 135 125 124 128
185 184 184 184 185 187 190 192 194 196 197 196 201 204 206 199 197 197 200 196 197 191 195 197 27 57 124 108 95 50 104 147 154 147 147 152 153 160 153 145 142 131 131
188 189 187 189 190 192 194 194 195 196 196 196 199 202 204 200 197 198 199 201 200 192 196 193 93 72 143 139 108 56 129 149 161 147 145 168 152 153 154 155 158 150 140
190 191 193 193 195 197 197 196 199 199 197 196 197 200 202 199 197 198 200 205 202 196 196 199 207 135 119 144 120 110 131 137 155 147 146 157 165 168 172 168 166 161 157
194 195 196 197 199 198 198 198 198 198 199 197 198 201 201 200 197 199 203 203 204 198 200 204 208 207 143 154 136 134 135 139 151 150 140 169 174 167 163 166 176 176 169
196 197 198 197 199 199 199 200 199 199 199 200 201 203 202 202 197 200 205 201 202 202 199 207 210 214 183 160 151 149 140 133 152 165 147 155 161 156 150 163 177 183 179
197 197 197 198 200 199 201 202 202 201 201 203 203 207 205 204 201 202 207 205 203 207 207 206 208 206 207 178 166 164 158 145 146 158 160 164 175 182 173 171 182 179 176
196 197 198 199 200 201 202 202 202 202 204 207 208 211 209 207 208 208 209 209 206 209 211 207 207 204 203 193 182 180 184 178 179 171 171 185 188 186 189 178 182 185 181
200 201 200 199 200 201 201 202 205 205 207 211 214 213 211 211 213 214 214 213 210 209 216 213 208 208 209 203 200 192 198 199 200 200 197 188 194 185 190 193 184 190 193
206 203 201 201 201 201 202 203 206 209 212 214 217 216 214 214 215 215 216 218 215 215 216 220 217 212 212 204 207 206 207 205 206 209 209 203 197 191 185 187 196 206 185
202 201 201 200 200 200 201 203 206 211 214 214 216 217 216 216 215 215 216 217 217 218 219 222 225 219 215 210 209 220 211 206 211 211 220 214 200 192 188 186 194 214 208
199 197 194 192 192 194 195 199 204 209 213 215 217 217 217 215 215 215 217 217 217 217 218 222 227 228 218 214 209 215 220 203 207 212 215 213 208 197 197 199 194 197 208
196 190 184 185 187 191 193 197 202 206 210 213 215 215 215 214 214 214 215 215 217 218 218 220 228 233 222 217 212 216 220 220 213 211 214 210 211 207 200 204 197 201 213
194 188 185 184 185 189 190 194 200 205 207 208 207 206 206 207 209 208 209 211 214 217 219 220 223 221 218 216 214 220 221 224 222 218 216 217 215 214 214 209 212 221 219
190 187 183 180 179 179 180 181 188 190 192 192 191 191 193 196 200 203 206 209 213 218 222 229 236 230 224 222 213 217 234 227 230 226 221 224 226 218 215 218 218 226 230
181 181 174 171 167 170 168 168 165 165 167 169 172 177 183 188 193 197 201 204 209 213 216 222 232 229 231 220 215 218 225 231 233 235 231 218 228 226 217 222 219 225 232
172 170 166 156 157 153 157 154 152 149 150 152 158 166 173 180 186 191 197 202 205 205 202 204 219 234 234 232 215 226 226 236 247 231 238 225 241 228 218 224 224 230 225
165 161 154 153 143 141 141 139 131 129 127 129 133 142 155 168 179 188 196 204 208 209 202 207 218 226 239 219 213 235 233 245 242 238 228 231 231 226 225 224 223 227 227
158 156 155 149 149 145 139 131 126 123 124 123 123 126 131 140 158 178 195 203 210 214 212 209 220 225 229 224 228 241 242 248 265 234 228 225 220 232 232 226 236 229 224
156 152 151 150 145 143 138 133 128 124 121 121 122 127 137 148 158 170 187 201 212 217 218 217 213 225 228 229 230 230 232 228 218 209 241 239 238 226 237 244 238 232 227
Wind_Speed_850mb
37 55 33 34 48 56 55 52 48 43 39 32 26 20 15 10 8 5 4 3 5 8 13 19 25 24 18 20 17 14 18 18 11 18 33 47 34 38 33 35 35 33 39
51 57 53 44 51 58 57 55 50 43 37 30 24 20 15 11 9 7 5 1 1 4 10 17 22 21 18 19 15 12 16 21 26 16 13 16 40 46 43 43 36 36 49
49 54 56 55 58 60 58 56 49 43 37 32 26 21 16 12 11 9 7 3 3 2 7 13 17 18 17 15 17 18 16 19 23 24 10 16 19 47 56 56 58 42 52
39 44 54 62 61 59 56 54 49 44 38 32 27 21 16 12 13 12 9 6 5 4 5 10 12 12 12 13 15 18 16 17 17 28 21 34 38 33 41 61 62 49 39
33 42 53 58 59 59 57 55 50 45 39 33 29 23 17 14 14 13 10 8 7 6 2 7 11 10 9 11 12 14 12 16 22 28 26 27 34 48 55 60 74 75 73
38 43 51 56 59 60 59 56 53 46 40 35 30 23 18 15 16 15 12 10 9 8 2 4 9 12 10 11 11 14 11 11 19 26 24 21 32 50 81 89 89 89 80
43 50 57 61 63 63 62 59 55 48 42 36 30 24 19 17 18 16 14 12 11 11 5 2 6 7 9 11 10 10 9 8 15 23 23 24 42 55 74 90 80 81 77
42 51 56 59 62 62 61 58 54 48 43 38 31 24 20 18 19 18 15 13 13 13 9 2 3 5 9 12 6 6 7 9 17 20 22 25 35 34 56 80 84 78 73
48 53 56 58 60 60 58 56 51 47 43 38 31 25 21 19 20 19 17 15 14 15 13 6 2 6 8 10 6 4 7 14 23 24 19 24 40 60 60 61 62 75 54
48 51 55 57 58 55 54 53 49 47 43 38 33 28 24 21 21 20 18 16 15 16 17 11 5 2 6 11 11 10 18 22 20 21 28 28 35 36 43 51 65 69 87
54 56 57 57 56 56 57 55 53 51 47 40 36 31 26 22 21 21 20 17 16 17 16 15 9 5 6 14 18 20 21 18 19 25 26 30 34 35 43 49 54 60 73
51 54 56 57 61 61 60 58 56 53 47 41 37 34 30 26 22 22 22 20 19 18 17 16 14 10 8 14 24 21 21 20 23 26 24 35 38 33 30 22 46 60 71
50 52 55 60 62 63 62 60 57 53 48 45 41 38 34 28 24 23 24 23 22 20 18 17 17 13 10 17 27 25 24 21 20 26 33 28 31 31 24 24 37 62 75
52 54 57 60 60 62 63 60 58 54 52 49 45 41 34 29 26 25 25 26 24 23 20 18 20 17 14 19 28 29 27 23 24 24 26 28 29 33 30 31 40 61 77
56 60 61 61 61 62 62 60 58 55 53 51 48 41 37 35 33 29 26 28 28 26 24 22 23 22 18 19 24 28 27 26 25 29 29 27 28 31 30 25 28 52 65
59 58 58 58 60 59 60 59 57 55 53 49 46 45 44 41 37 34 30 29 29 30 27 24 24 25 25 21 24 26 24 25 27 28 30 34 32 35 34 29 22 30 49
60 61 61 57 55 55 54 54 54 54 53 50 49 48 46 43 40 38 35 32 30 30 28 26 25 27 29 28 26 24 27 25 26 28 30 39 40 42 45 35 34 34 42
62 60 60 55 52 51 51 51 51 51 50 50 50 49 46 44 43 40 37 33 30 30 31 30 28 28 34 34 30 27 25 29 28 29 26 33 43 49 51 43 44 43 47
67 61 56 54 52 49 47 46 45 44 45 46 47 46 45 43 42 39 36 32 31 31 31 31 28 28 33 36 35 33 31 30 30 30 31 34 40 51 56 54 49 39 41
65 63 58 52 47 45 42 41 40 42 43 42 41 42 41 40 37 35 35 34 32 31 32 31 29 27 31 37 36 38 36 32 35 34 32 37 42 48 54 55 55 48 44
69 62 55 51 48 44 40 39 39 38 37 37 37 37 37 35 34 34 33 32 29 27 27 25 26 26 30 38 38 36 39 37 36 38 37 34 42 48 49 54 53 46 41
76 66 63 57 50 46 43 41 39 37 36 36 35 34 33 32 31 31 30 29 28 27 26 21 19 20 30 39 42 35 33 35 39 42 33 28 40 52 50 50 52 48 45
78 67 64 57 53 47 40 43 42 40 37 34 31 30 29 28 28 28 29 29 26 25 23 18 15 16 23 27 33 28 35 32 36 40 36 33 42 51 50 51 53 52 44
83 76 70 68 64 56 54 53 53 49 44 39 34 29 25 24 24 25 26 26 24 25 23 23 21 21 20 23 31 29 30 23 31 33 35 34 31 45 50 50 51 52 51
88 80 80 69 66 67 63 59 54 48 43 38 33 28 24 20 17 18 21 23 24 24 27 25 26 23 23 22 25 25 18 17 37 36 36 36 36 36 40 49 51 51 56
98 88 78 82 78 70 64 58 51 42 34 29 25 20 16 14 13 12 12 15 18 21 25 29 29 29 26 28 28 24 22 23 18 11 23 37 36 37 41 42 44 46 54
Wind_Direction_850mb
208 207 223 218 209 205 206 206 206 206 207 208 210 214 226 242 265 272 288 336 354 28 31 23 14 25 57 52 64 35 45 50 48 52 66 69 73 77 78 94 108 120 132
226 224 228 221 206 203 202 203 203 205 203 203 210 214 225 237 245 238 243 283 336 47 33 25 23 34 49 48 59 52 48 47 60 55 51 60 77 87 84 94 102 125 148
229 225 218 208 199 198 200 200 200 199 200 203 207 213 222 231 224 221 221 201 216 124 36 29 20 31 41 60 56 55 56 62 53 59 73 71 86 82 90 90 90 114 132
218 214 203 196 193 193 196 197 197 196 199 202 205 210 222 226 210 210 208 185 192 161 41 31 8 15 36 73 67 57 54 75 71 82 88 110 107 106 84 99 101 92 113
203 194 190 189 188 190 191 192 194 197 199 202 204 207 217 220 205 205 199 183 181 166 60 25 6 39 49 84 78 62 62 83 93 104 115 109 120 114 109 98 103 116 106
188 185 185 184 184 185 188 190 192 197 199 200 203 207 210 211 202 200 194 187 186 180 197 24 14 35 74 96 93 73 79 96 119 128 115 131 124 132 123 115 110 109 108
183 183 183 182 183 184 187 190 193 196 198 198 202 205 207 202 198 196 197 189 190 191 198 25 19 46 95 104 97 70 81 135 134 141 141 132 128 137 136 135 125 124 128
185 184 184 184 185 187 190 192 194 196 197 196 201 204 206 199 197 197 200 196 197 191 195 197 27 57 124 108 95 50 104 147 154 147 147 152 153 160 153 145 142 131 131
188 189 187 189 190 192 194 194 195 196 196 196 199 202 204 200 197 198 199 201 200 192 196 193 93 72 143 139 108 56 129 149 161 147 145 168 152 153 154 155 158 150 140
190 191 193 193 195 197 197 196 199 199 197 196 197 200 202 199 197 198 200 205 202 196 196 199 207 135 119 144 120 110 131 137 155 147 146 157 165 168 172 168 166 161 157
194 195 196 197 199 198 198 198 198 198 199 197 198 201 201 200 197 199 203 203 204 198 200 204 208 207 143 154 136 134 135 139 151 150 140 169 174 167 163 166 176 176 169
196 197 198 197 199 199 199 200 199 199 199 200 201 203 202 202 197 200 205 201 202 202 199 207 210 214 183 160 151 149 140 133 152 165 147 155 161 156 150 163 177 183 179
197 197 197 198 200 199 201 202 202 201 201 203 203 207 205 204 201 202 207 205 203 207 207 206 208 206 207 178 166 164 158 145 146 158 160 164 175 182 173 171 182 179 176
196 197 198 199 200 201 202 202 202 202 204 207 208 211 209 207 208 208 209 209 206 209 211 207 207 204 203 193 182 180 184 178 179 171 171 185 188 186 189 178 182 185 181
200 201 200 199 200 201 201 202 205 205 207 211 214 213 211 211 213 214 214 213 210 209 216 213 208 208 209 203 200 192 198 199 200 200 197 188 194 185 190 193 184 190 193
206 203 201 201 201 201 202 203 206 209 212 214 217 216 214 214 215 215 216 218 215 215 216 220 217 212 212 204 207 206 207 205 206 209 209 203 197 191 185 187 196 206 185
202 201 201 200 200 200 201 203 206 211 214 214 216 217 216 216 215 215 216 217 217 218 219 222 225 219 215 210 209 220 211 206 211 211 220 214 200 192 188 186 194 214 208
199 197 194 192 192 194 195 199 204 209 213 215 217 217 217 215 215 215 217 217 217 217 218 222 227 228 218 214 209 215 220 203 207 212 215 213 208 197 197 199 194 197 208
196 190 184 185 187 191 193 197 202 206 210 213 215 215 215 214 214 214 215 215 217 218 218 220 228 233 222 217 212 216 220 220 213 211 214 210 211 207 200 204 197 201 213
194 188 185 184 185 189 190 194 200 205 207 208 207 206 206 207 209 208 209 211 214 217 219 220 223 221 218 216 214 220 221 224 222 218 216 217 215 214 214 209 212 221 219
190 187 183 180 179 179 180 181 188 190 192 192 191 191 193 196 200 203 206 209 213 218 222 229 236 230 224 222 213 217 234 227 230 226 221 224 226 218 215 218 218 226 230
181 181 174 171 167 170 168 168 165 165 167 169 172 177 183 188 193 197 201 204 209 213 216 222 232 229 231 220 215 218 225 231 233 235 231 218 228 226 217 222 219 225 232
172 170 166 156 157 153 157 154 152 149 150 152 158 166 173 180 186 191 197 202 205 205 202 204 219 234 234 232 215 226 226 236 247 231 238 225 241 228 218 224 224 230 225
165 161 154 153 143 141 141 139 131 129 127 129 133 142 155 168 179 188 196 204 208 209 202 207 218 226 239 219 213 235 233 245 242 238 228 231 231 226 225 224 223 227 227
158 156 155 149 149 145 139 131 126 123 124 123 123 126 131 140 158 178 195 203 210 214 212 209 220 225 229 224 228 241 242 248 265 234 228 225 220 232 232 226 236 229 224
156 152 151 150 145 143 138 133 128 124 121 121 122 127 137 148 158 170 187 201 212 217 218 217 213 225 228 229 230 230 232 228 218 209 241 239 238 226 237 244 238 232 227